Voltar ao catálogo

STARLINK-34478

AtivoComunicaçõesVLEO
NORAD 64435·PAYLOAD·🇺🇸 United States

Lançado Jun 17, 2025 de Vandenberg Space Force Base

Loading…

Próximas Passagens (próximas 24 horas)

TLE

AtualizadoSource: CelesTrak SupGP

Época: Sep 15, 2026, 03:24 UTC

1 64435C 25129Z   26258.14215278 -.00074648  00000+0 -25973-2 0  2580
2 64435  69.9990 315.1876 0003437 265.9407 154.5639 15.29608729    10

Acompanhe STARLINK-34478 em tempo real com AllMySat

Download on the App Store